Roanoke, VA

5:38 AM EST on December 05, 2016 (GMT -0500)
Roanoke Regional-Woodrum

Weather History for KROA - December, 2011

Change the Weather History Date:

Sunday, December 4, 2011

  Actual Average Record
Temperature  
Mean Temperature 43 °F 42 °F  
Max Temperature 58 °F 51 °F 76 °F (1982)
Min Temperature 28 °F 33 °F 10 °F (1940)
Degree Days  
Heating Degree Days 22 23  
Month to date heating degree days 89 91  
Since 1 July heating degree days 802 895  
Cooling Degree Days 0 0  
Month to date cooling degree days 0 0  
Year to date cooling degree days 1549 1208  
Moisture  
Dew Point 33 °F    
Average Humidity 71    
Maximum Humidity 92    
Minimum Humidity 50    
Precipitation  
Precipitation 0.00 in 0.11 in 2.61 in (1993)
Month to date precipitation 0.00 0.42  
Year to date precipitation 40.84 38.73  
Snow  
Snow 0.00 in - - ()
Month to date snowfall 0.0  
Since 1 July snowfall T  
Snow Depth 0.00 in    
Sea Level Pressure  
Sea Level Pressure 30.47 in    
Wind  
Wind Speed 2 mph (ESE)    
Max Wind Speed 12 mph    
Max Gust Speed 14 mph    
Visibility 10 miles    
Events      
T = Trace of Precipitation, MM = Missing Value Source: NWS Daily Summary

Daily Weather History Graph

Daily Weather History Graph

Search for Another Location

Airport or City:

Trip Planner

Search our weather history database for the weather conditions in past years. The results will help you decide how hot, cold, wet, or windy it might be!

Date:

Astronomy

Dec. 04, 2011 Rise Set
Actual Time 7:17 AM EST 5:02 PM EST
Civil Twilight 6:49 AM EST 5:30 PM EST
Nautical Twilight 6:16 AM EST 6:03 PM EST
Astronomical Twilight 5:45 AM EST 6:34 PM EST
Moon 1:26 PM EST (12/4) 1:47 AM EST (12/4)
Length of Visible Light 10h 41m
Length of Day
9h 44m
Waxing Gibbous, 71% of the Moon is Illuminated
Dec 4
Waxing Gibbous
Dec 10
Full
Dec 17
Last Quarter
Dec 24
New
Jan 1
First Quarter

Hourly Weather History & Observations

Time (EST) Temp. Dew Point Humidity Pressure Visibility Wind Dir Wind Speed Gust Speed Precip Events Conditions
12:54 AM 32.0 °F 28.0 °F 85% 30.56 in 10.0 mi Calm Calm - N/A   Clear
1:54 AM 33.1 °F 28.9 °F 85% 30.55 in 10.0 mi Calm Calm - N/A   Clear
2:54 AM 30.9 °F 27.0 °F 85% 30.55 in 10.0 mi Calm Calm - N/A   Clear
3:54 AM 30.0 °F 27.0 °F 88% 30.54 in 9.0 mi Calm Calm - N/A   Clear
4:54 AM 30.0 °F 26.1 °F 85% 30.53 in 10.0 mi Calm Calm - N/A   Clear
5:54 AM 28.9 °F 27.0 °F 92% 30.54 in 9.0 mi Calm Calm - N/A   Clear
6:54 AM 28.4 °F 24.8 °F 86% 30.52 in 10.0 mi Calm Calm - N/A   Clear
7:54 AM 30.0 °F 27.0 °F 88% 30.55 in 9.0 mi Calm Calm - N/A   Clear
8:54 AM 33.1 °F 28.9 °F 85% 30.55 in 8.0 mi Calm Calm - N/A   Clear
9:54 AM 37.9 °F 30.9 °F 76% 30.56 in 10.0 mi Calm Calm - 0.01 in   Clear
10:54 AM 42.8 °F 32.0 °F 66% 30.51 in 10.0 mi Calm Calm - N/A   Clear
11:54 AM 46.0 °F 33.1 °F 61% 30.50 in 10.0 mi Calm Calm - N/A   Clear
12:54 PM 51.1 °F 35.1 °F 54% 30.46 in 10.0 mi Calm Calm - N/A   Clear
1:54 PM 54.0 °F 36.0 °F 51% 30.42 in 10.0 mi North 3.5 mph - N/A   Clear
2:54 PM 55.9 °F 37.9 °F 51% 30.40 in 10.0 mi NNW 3.5 mph - N/A   Clear
3:54 PM 55.9 °F 37.9 °F 51% 30.38 in 10.0 mi SE 9.2 mph - N/A   Clear
4:54 PM 53.1 °F 39.0 °F 59% 30.39 in 10.0 mi SE 9.2 mph - N/A   Clear
5:54 PM 50.0 °F 39.0 °F 66% 30.42 in 10.0 mi SE 5.8 mph - N/A   Clear
6:54 PM 51.8 °F 39.2 °F 62% 30.39 in 10.0 mi ESE 6.9 mph - N/A   Mostly Cloudy
7:54 PM 51.1 °F 39.0 °F 63% 30.42 in 10.0 mi SSE 4.6 mph - N/A   Overcast
8:54 PM 50.0 °F 39.0 °F 66% 30.42 in 10.0 mi Calm Calm - N/A   Partly Cloudy
9:54 PM 48.0 °F 39.0 °F 71% 30.42 in 10.0 mi Calm Calm - N/A   Mostly Cloudy
10:54 PM 48.0 °F 39.0 °F 71% 30.41 in 10.0 mi Calm Calm - N/A   Clear
11:54 PM 44.1 °F 37.0 °F 76% 30.41 in 10.0 mi Calm Calm - N/A   Mostly Cloudy